Location: Kuffner-Sternwarte
(48.2130°N, 16.2960°E)
Time: 11:23:25
(UTC+01:00)

COROT - Pass Details

Date: 21 March 2017
Orbit: 602 x 887 km, 90.0° (Epoch: 20 November)

Event Time Altitude Azimuth Distance (km) Brightness Sun altitude
Rises 00:33:24 0° 4° (N) 3,005 9.9 -41.1°
Reaches altitude 10° 00:35:36 10° 9° (N) 2,125 9.0 -41.0°
Enters shadow 00:35:58 12° 10° (N) 1,983 8.8 -41.0°
